Flag for Sierra Leone Weather past 2 weeks in Freetown, Sierra Leone

Now
73 °F

Passing clouds.


Feels Like: 68 °F
Forecast: 76 / 85 °F
Wind: 5 mph from Northeast

Location: Conakry / Gbessia

Current Time: Jan 29, 2015 at 8:31:02 AM

Latest Report: Jan 29, 2015 at 7:00 AM


Visibility: N/A

Pressure: 29.86 "Hg

Humidity: 100%

Dew point: 73 °F

Location of FreetownLocation

Historic Weather in Freetown — Graph

°F

Freetown temperature yesterday

Maximum temperature yesterday: 95 °F (at 2:00 PM)
Minimum temperature yesterday: 75 °F (at 7:00 AM)
Average temperature yesterday: 83 °F

Past Weeks' High & Low Weather Summary

 TemperatureHumidityPressure
High95 °F (Jan 28, 2:00 PM)100% (Jan 18, 4:00 AM)29.98 "Hg (Jan 18, 4:00 AM)
Low68 °F (Jan 15, 8:00 AM)18% (Jan 28, 2:00 PM)29.77 "Hg (Jan 24, 4:00 PM)
Average80 °F77%29.89 "Hg
* Reported Jan 14 7:00 AM — Jan 29 7:00 AM, Freetown, Weather by CustomWeather, © 2014

Note: Actual official high and low records may vary slightly from our data, if they occured in-between our weather recording intervals... More about our weather records

Advertising

Freetown weather history for previous 24 hours

 ConditionsComfort  
Time TempWeatherWind HumidityBarometerVisibility
7:00 AM
Jan 29
73 °FPassing clouds.5 mph100%29.86 "HgN/A
6:00 AM75 °FPassing clouds.5 mph94%29.83 "HgN/A
5:00 AM75 °FPassing clouds.No wind94%29.83 "HgN/A
4:00 AM77 °FPassing clouds.2 mph94%29.83 "HgN/A
3:00 AM77 °FPassing clouds.2 mph94%29.83 "HgN/A
2:00 AM77 °FPassing clouds.2 mph94%29.86 "HgN/A
1:00 AM79 °FPassing clouds.7 mph89%29.89 "HgN/A
12:00 AM79 °FPassing clouds.7 mph89%29.89 "HgN/A
11:00 PM
Jan 28
81 °FPassing clouds.7 mph84%29.89 "HgN/A
10:00 PM81 °FPassing clouds.5 mph89%29.89 "HgN/A
7:00 PM82 °FHaze.7 mph74%29.80 "Hg3 mi
6:00 PM86 °FHaze.9 mph62%29.80 "Hg3 mi
5:00 PM88 °FHaze.12 mph59%29.77 "Hg3 mi
4:00 PM91 °FHaze.14 mph36%29.77 "Hg3 mi
3:00 PM95 °FScattered clouds.7 mph18%29.83 "Hg3 mi
2:00 PM95 °FScattered clouds.7 mph18%29.83 "Hg3 mi
1:00 PM93 °FScattered clouds.12 mph30%29.83 "Hg3 mi
12:00 PM86 °FScattered clouds.12 mph66%29.86 "Hg3 mi
11:00 AM84 °FScattered clouds.9 mph74%29.89 "Hg3 mi
10:00 AM79 °FPartly sunny.7 mph79%29.92 "Hg3 mi
9:00 AM79 °FFog.5 mph84%29.89 "Hg1 mi
8:00 AM75 °FFog.No wind100%29.89 "Hg1 mi
Weather by CustomWeather, © 2014

See weather overviewHow to use our weather pages